VK2HAR Weather Reports


Display with metric or nautical units.
time (UTC)temp
F
wind
direction
speed
MPH
gust
MPH
rain 1hr
in
rain 24hr
in
rain mn
in
humidity
%
barometer
mb
20260504160217 61 0 0.0 0.0 0.00 0.20 0.00 96 1016.5
20260504150906 62 98 1.0 2.0 0.00 0.20 0.00 96 1016.1
20260504141117 63 98 0.0 2.0 0.00 0.20 0.00 95 1016.2
20260504120216 63 207 2.0 4.0 0.00 0.19 0.19 92 1016.2
20260504081803 66 57 2.0 4.0 0.00 0.19 0.19 87 1014.7
20260504080903 66 57 1.0 3.0 0.00 0.19 0.19 87 1014.5
20260504070218 67 58 4.0 6.0 0.00 0.19 0.19 86 1014.4
20260504050003 66 46 2.0 5.0 0.00 0.19 0.19 93 1014.3
20260504045403 66 44 2.0 5.0 0.00 0.19 0.19 93 1014.2
20260504044504 66 40 2.0 5.0 0.00 0.19 0.19 95 1014.3
20260504043603 65 40 1.0 3.0 0.00 0.19 0.19 95 1014.4
20260504042703 65 40 1.0 4.0 0.00 0.19 0.19 95 1014.3
20260504041803 64 40 1.0 3.0 0.00 0.19 0.19 96 1014.5
20260504040903 64 40 2.0 5.0 0.00 0.19 0.19 96 1014.5
20260504040003 64 47 4.0 6.0 0.00 0.19 0.19 96 1014.5
20260504035403 64 55 3.0 4.0 0.00 0.19 0.19 96 1014.5
20260504034503 63 51 3.0 5.0 0.00 0.19 0.19 96 1014.8
20260504033603 63 46 3.0 5.0 0.00 0.19 0.19 96 1015.0
20260504032703 63 43 2.0 5.0 0.00 0.19 0.19 97 1015.0
20260504031803 63 82 2.0 5.0 0.00 0.19 0.19 97 1015.2
20260504030903 62 90 2.0 4.0 0.00 0.19 0.19 97 1015.2
20260504030003 62 90 2.0 4.0 0.00 0.19 0.19 96 1015.5
20260504025403 62 90 1.0 4.0 0.01 0.19 0.19 97 1015.8
20260504024503 61 90 2.0 4.0 0.02 0.19 0.19 96 1015.8
20260504023603 61 90 1.0 3.0 0.06 0.19 0.19 96 1016.0
20260504022703 62 90 1.0 4.0 0.06 0.19 0.19 96 1016.2
20260504021803 62 90 2.0 3.0 0.06 0.19 0.19 96 1016.4
20260504020903 62 90 2.0 4.0 0.06 0.19 0.19 96 1016.7
20260504020003 62 90 2.0 4.0 0.07 0.19 0.19 96 1016.9
20260504015615 62 90 2.0 4.0 0.06 0.18 0.18 96 1016.9
20260504014503 62 91 2.0 4.0 0.06 0.17 0.17 96 1017.2
20260504013603 62 91 2.0 4.0 0.05 0.13 0.13 96 1017.2
20260504012704 62 90 2.0 4.0 0.04 0.13 0.13 96 1017.2
20260504011803 62 90 2.0 4.0 0.04 0.13 0.13 96 1017.3
20260504010903 62 90 1.0 3.0 0.05 0.13 0.13 96 1017.6
20260504010003 62 89 2.0 4.0 0.04 0.12 0.12 96 1017.7
20260504005403 62 96 3.0 6.0 0.03 0.11 0.11 95 1017.5
20260504004503 62 110 1.0 3.0 0.03 0.10 0.10 96 1017.7
20260504003604 62 110 0.0 1.0 0.02 0.09 0.09 96 1017.8
20260504002917 62 0 0.0 0.0 0.02 0.09 0.09 96 1017.6
20260504002016 61 0 0.0 0.0 0.02 0.09 0.09 96 1017.5
20260504001116 61 0 0.0 0.0 0.02 0.08 0.08 96 1017.4
20260504000003 61 0 0.0 0.0 0.02 0.08 0.08 96 1017.3
20260503235619 61 110 0.0 1.0 0.02 0.08 0.08 96 1017.4
20260503234503 61 0 0.0 0.0 0.03 0.07 0.07 96 1017.6
20260503233603 61 110 0.0 2.0 0.05 0.07 0.07 95 1017.4
20260503232704 61 110 1.0 2.0 0.06 0.06 0.06 95 1017.4
20260503232016 61 110 0.0 2.0 0.06 0.06 0.06 95 1017.4
20260503230903 60 110 1.0 3.0 0.06 0.06 0.06 95 1017.7
20260503230219 60 110 0.0 2.0 0.06 0.06 0.06 95 1017.8
20260503225619 60 110 0.0 1.0 0.06 0.06 0.06 95 1017.7
20260503224504 60 110 0.0 2.0 0.04 0.04 0.04 95 1017.7
20260503223603 60 110 1.0 4.0 0.02 0.02 0.02 95 1017.8
20260503222916 60 110 0.0 2.0 0.01 0.01 0.02 95 1017.5
20260503222016 60 110 0.0 1.0 0.00 0.00 0.00 95 1017.3
20260503220904 60 110 0.0 2.0 0.00 0.00 0.00 95 1017.1
20260503220003 59 110 1.0 3.0 0.00 0.00 0.00 95 1016.9
20260503215403 59 0 0.0 0.0 0.00 0.00 0.00 95 1016.9
20260503214503 59 0 0.0 0.0 0.00 0.00 0.00 95 1016.7
20260503213817 59 0 0.0 0.0 0.00 0.00 0.00 95 1016.8
20260503212703 59 110 0.0 1.0 0.00 0.00 0.00 95 1016.7
20260503211803 58 0 0.0 0.0 0.00 0.00 0.00 95 1016.7
20260503210903 58 343 1.0 3.0 0.00 0.00 0.00 95 1016.6
20260503210218 58 343 1.0 3.0 0.00 0.00 0.00 95 1016.6
20260503205403 58 0 0.0 0.0 0.00 0.00 0.00 95 1016.3
20260503204717 58 0 0.0 0.0 0.00 0.00 0.00 95 1016.3
20260503202704 58 343 0.0 1.0 0.00 0.00 0.00 95 1016.3
20260503201803 58 343 0.0 1.0 0.00 0.00 0.00 95 1016.2
20260503201119 58 343 0.0 1.0 0.00 0.00 0.00 95 1016.2
20260503200004 58 0 0.0 0.0 0.00 0.00 0.00 95 1016.1
20260503195617 58 0 0.0 0.0 0.00 0.00 0.00 94 1016.1
20260503194717 58 0 0.0 0.0 0.00 0.00 0.00 94 1016.0
20260503193816 58 0 0.0 0.0 0.00 0.00 0.00 94 1015.8
20260503192703 58 0 0.0 0.0 0.00 0.00 0.00 95 1015.8
20260503191803 58 0 0.0 0.0 0.00 0.00 0.00 95 1015.7
20260503190903 58 0 0.0 0.0 0.00 0.00 0.00 95 1015.8
20260503190003 58 0 0.0 0.0 0.00 0.00 0.00 95 1015.7
20260503185403 58 0 0.0 0.0 0.00 0.00 0.00 95 1015.7
20260503184503 57 0 0.0 0.0 0.00 0.00 0.00 94 1015.9
20260503183820 57 0 0.0 0.0 0.00 0.00 0.00 94 1015.7
20260503182703 57 0 0.0 0.0 0.00 0.00 0.00 95 1015.7
20260503181803 57 0 0.0 0.0 0.00 0.00 0.00 95 1015.7
20260503180904 57 0 0.0 0.0 0.00 0.00 0.00 95 1015.7
20260503180004 57 0 0.0 0.0 0.00 0.00 0.00 94 1015.8
20260503175403 57 0 0.0 0.0 0.00 0.00 0.00 94 1015.8
20260503174503 56 0 0.0 0.0 0.00 0.00 0.00 94 1015.8
20260503173603 56 0 0.0 0.0 0.00 0.00 0.00 94 1015.9
20260503172703 56 0 0.0 0.0 0.00 0.00 0.00 94 1015.8
20260503171803 56 0 0.0 0.0 0.00 0.00 0.00 94 1016.0
20260503170906 56 0 0.0 0.0 0.00 0.00 0.00 94 1016.0